| time (UTC) | temp F | wind direction | speed knots | gust knots | rain 1hr in | rain 24hr in | rain mn in | humidity % | barometer mb |
| 20260504025929 | 43 | 137 | 0.0 | 0.0 | 0.00 | 0.00 | 0.00 | 68 | 1018.1 |
| 20260504025426 | 44 | 136 | 0.0 | 0.0 | 0.00 | 0.00 | 0.00 | 69 | 1018.3 |
| 20260504024923 | 43 | 176 | 0.0 | 0.0 | 0.00 | 0.00 | 0.00 | 68 | 1018.1 |
| 20260504024420 | 44 | 176 | 0.0 | 0.0 | 0.00 | 0.00 | 0.00 | 70 | 1018.1 |
| 20260504023917 | 44 | 162 | 0.0 | 0.9 | 0.00 | 0.00 | 0.00 | 68 | 1018.1 |
| 20260504023414 | 44 | 84 | 0.9 | 0.9 | 0.00 | 0.00 | 0.00 | 63 | 1018.2 |
| 20260504022909 | 44 | 89 | 0.0 | 0.0 | 0.00 | 0.00 | 0.00 | 69 | 1018.5 |
| 20260504022406 | 44 | 82 | 0.0 | 0.9 | 0.00 | 0.00 | 0.00 | 71 | 1018.3 |
| 20260504021902 | 44 | 123 | 0.9 | 0.9 | 0.00 | 0.00 | 0.00 | 66 | 1018.5 |
| 20260504021359 | 44 | 111 | 0.9 | 1.7 | 0.00 | 0.00 | 0.00 | 66 | 1018.3 |
| 20260504020856 | 43 | 101 | 0.0 | 0.0 | 0.00 | 0.00 | 0.00 | 68 | 1018.3 |
| 20260504020353 | 43 | 111 | 1.7 | 1.7 | 0.00 | 0.00 | 0.00 | 70 | 1018.3 |
| 20260504015849 | 43 | 51 | 2.6 | 2.6 | 0.00 | 0.00 | 0.00 | 67 | 1018.2 |
| 20260504015345 | 44 | 119 | 0.9 | 0.9 | 0.00 | 0.00 | 0.00 | 70 | 1018.3 |
| 20260504014841 | 44 | 177 | 0.0 | 0.9 | 0.00 | 0.00 | 0.00 | 61 | 1018.5 |
| 20260504014337 | 42 | 148 | 0.9 | 0.9 | 0.00 | 0.00 | 0.00 | 65 | 1018.3 |
| 20260504013835 | 42 | 91 | 0.0 | 0.9 | 0.00 | 0.00 | 0.00 | 68 | 1017.9 |
| 20260504013333 | 42 | 259 | 0.0 | 0.9 | 0.00 | 0.00 | 0.00 | 67 | 1017.9 |
| 20260504012830 | 43 | 273 | 0.9 | 1.7 | 0.00 | 0.00 | 0.00 | 67 | 1017.8 |
| 20260504012328 | 43 | 86 | 0.0 | 0.9 | 0.00 | 0.00 | 0.00 | 63 | 1017.7 |
| 20260504011825 | 42 | 81 | 0.9 | 2.6 | 0.00 | 0.00 | 0.00 | 63 | 1017.7 |
| 20260504011321 | 43 | 231 | 1.7 | 2.6 | 0.00 | 0.00 | 0.00 | 67 | 1017.5 |
| 20260504010817 | 44 | 85 | 0.0 | 0.0 | 0.00 | 0.00 | 0.00 | 62 | 1017.5 |
| 20260504010313 | 43 | 150 | 0.9 | 1.7 | 0.00 | 0.00 | 0.00 | 65 | 1017.5 |
| 20260504005809 | 44 | 231 | 0.0 | 0.0 | 0.00 | 0.00 | 0.00 | 61 | 1017.5 |
| 20260504005306 | 44 | 245 | 0.0 | 1.7 | 0.00 | 0.00 | 0.00 | 62 | 1017.4 |
| 20260504004804 | 44 | 71 | 2.6 | 2.6 | 0.00 | 0.00 | 0.00 | 57 | 1017.4 |
| 20260504004301 | 45 | 229 | 1.7 | 2.6 | 0.00 | 0.00 | 0.00 | 60 | 1017.5 |
| 20260504003757 | 45 | 84 | 1.7 | 2.6 | 0.00 | 0.00 | 0.00 | 53 | 1017.2 |
| 20260504003255 | 45 | 105 | 0.9 | 1.7 | 0.00 | 0.00 | 0.00 | 57 | 1017.3 |
| 20260504002752 | 47 | 100 | 1.7 | 2.6 | 0.00 | 0.00 | 0.00 | 51 | 1017.1 |
| 20260504002248 | 47 | 199 | 0.0 | 0.9 | 0.00 | 0.00 | 0.00 | 53 | 1017.3 |
| 20260504001746 | 47 | 114 | 0.9 | 1.7 | 0.00 | 0.00 | 0.00 | 57 | 1017.1 |
| 20260504001243 | 48 | 69 | 0.0 | 1.7 | 0.00 | 0.00 | 0.00 | 51 | 1017.1 |
| 20260504000740 | 49 | 148 | 0.0 | 0.0 | 0.00 | 0.00 | 0.00 | 55 | 1017.0 |
| 20260504000236 | 49 | 132 | 0.9 | 0.9 | 0.00 | 0.00 | 0.00 | 49 | 1017.1 |
| 20260503235735 | 50 | 113 | 0.9 | 1.7 | 0.00 | 0.00 | 0.00 | 49 | 1017.1 |
| 20260503235232 | 49 | 117 | 1.7 | 2.6 | 0.00 | 0.00 | 0.00 | 50 | 1017.1 |
| 20260503234730 | 50 | 135 | 0.0 | 0.9 | 0.00 | 0.00 | 0.00 | 51 | 1017.1 |
| 20260503234227 | 51 | 122 | 1.7 | 2.6 | 0.00 | 0.00 | 0.00 | 45 | 1017.0 |
| 20260503233724 | 50 | 135 | 2.6 | 2.6 | 0.00 | 0.00 | 0.00 | 43 | 1017.2 |
| 20260503233219 | 53 | 236 | 0.9 | 2.6 | 0.00 | 0.00 | 0.00 | 46 | 1017.2 |
| 20260503232716 | 53 | 80 | 0.0 | 1.7 | 0.00 | 0.00 | 0.00 | 38 | 1017.0 |
| 20260503232213 | 54 | 225 | 0.9 | 1.7 | 0.00 | 0.00 | 0.00 | 36 | 1017.2 |
| 20260503231712 | 54 | 284 | 0.0 | 0.9 | 0.00 | 0.00 | 0.00 | 42 | 1017.0 |
| 20260503231208 | 58 | 227 | 0.9 | 0.9 | 0.00 | 0.00 | 0.00 | 33 | 1017.1 |
| 20260503230704 | 57 | 246 | 1.7 | 1.7 | 0.00 | 0.00 | 0.00 | 34 | 1017.2 |
| 20260503230202 | 58 | 222 | 1.7 | 2.6 | 0.00 | 0.00 | 0.00 | 32 | 1017.0 |
| 20260503225659 | 58 | 329 | 1.7 | 2.6 | 0.00 | 0.00 | 0.00 | 32 | 1017.1 |
| 20260503225154 | 58 | 271 | 1.7 | 7.8 | 0.00 | 0.00 | 0.00 | 35 | 1017.2 |
| 20260503224652 | 59 | 241 | 1.7 | 3.5 | 0.00 | 0.00 | 0.00 | 30 | 1017.2 |
| 20260503224149 | 58 | 267 | 1.7 | 2.6 | 0.00 | 0.00 | 0.00 | 32 | 1017.1 |
| 20260503223647 | 59 | 204 | 1.7 | 7.8 | 0.00 | 0.00 | 0.00 | 32 | 1017.2 |
| 20260503223143 | 59 | 242 | 2.6 | 5.2 | 0.00 | 0.00 | 0.00 | 33 | 1016.9 |
| 20260503222641 | 58 | 173 | 2.6 | 6.1 | 0.00 | 0.00 | 0.00 | 30 | 1016.8 |
| 20260503222138 | 58 | 264 | 5.2 | 7.0 | 0.00 | 0.00 | 0.00 | 31 | 1017.1 |
| 20260503221637 | 60 | 171 | 6.1 | 7.8 | 0.00 | 0.00 | 0.00 | 29 | 1016.8 |
| 20260503221133 | 59 | 261 | 3.5 | 5.2 | 0.00 | 0.00 | 0.00 | 32 | 1016.8 |
| 20260503220630 | 60 | 161 | 0.9 | 2.6 | 0.00 | 0.00 | 0.00 | 32 | 1016.8 |
| 20260503220127 | 61 | 197 | 0.9 | 1.7 | 0.00 | 0.00 | 0.00 | 28 | 1017.0 |
| 20260503215624 | 60 | 70 | 0.9 | 5.2 | 0.00 | 0.00 | 0.00 | 36 | 1016.9 |
| 20260503215120 | 60 | 202 | 3.5 | 5.2 | 0.00 | 0.00 | 0.00 | 33 | 1016.9 |
| 20260503214619 | 58 | 230 | 1.7 | 5.2 | 0.00 | 0.00 | 0.00 | 31 | 1017.0 |
| 20260503214114 | 59 | 157 | 2.6 | 5.2 | 0.00 | 0.00 | 0.00 | 29 | 1017.0 |
| 20260503213609 | 58 | 142 | 1.7 | 3.5 | 0.00 | 0.00 | 0.00 | 29 | 1016.9 |
| 20260503213104 | 59 | 230 | 5.2 | 7.8 | 0.00 | 0.00 | 0.00 | 29 | 1017.1 |
| 20260503212602 | 59 | 238 | 1.7 | 3.5 | 0.00 | 0.00 | 0.00 | 34 | 1017.1 |
| 20260503212059 | 57 | 248 | 2.6 | 7.0 | 0.00 | 0.00 | 0.00 | 34 | 1017.3 |
| 20260503211556 | 58 | 204 | 4.3 | 7.8 | 0.00 | 0.00 | 0.00 | 33 | 1017.3 |
| 20260503211052 | 59 | 113 | 6.1 | 8.7 | 0.00 | 0.00 | 0.00 | 29 | 1017.1 |
| 20260503210549 | 59 | 270 | 1.7 | 2.6 | 0.00 | 0.00 | 0.00 | 30 | 1017.2 |
| 20260503210044 | 58 | 264 | 2.6 | 5.2 | 0.00 | 0.00 | 0.00 | 30 | 1017.2 |
| 20260503205541 | 58 | 259 | 4.3 | 7.0 | 0.00 | 0.00 | 0.00 | 32 | 1017.4 |
| 20260503205038 | 58 | 238 | 3.5 | 5.2 | 0.00 | 0.00 | 0.00 | 33 | 1017.3 |
| 20260503204535 | 58 | 186 | 5.2 | 8.7 | 0.00 | 0.00 | 0.00 | 32 | 1017.3 |
| 20260503204032 | 58 | 247 | 3.5 | 8.7 | 0.00 | 0.00 | 0.00 | 33 | 1017.1 |
| 20260503203529 | 59 | 251 | 6.1 | 8.7 | 0.00 | 0.00 | 0.00 | 31 | 1017.2 |
| 20260503203026 | 57 | 241 | 0.0 | 7.0 | 0.00 | 0.00 | 0.00 | 36 | 1017.6 |
| 20260503202524 | 59 | 211 | 3.5 | 7.8 | 0.00 | 0.00 | 0.00 | 34 | 1017.6 |
| 20260503202022 | 60 | 268 | 0.9 | 3.5 | 0.00 | 0.00 | 0.00 | 28 | 1017.5 |
| 20260503201520 | 60 | 184 | 0.0 | 1.7 | 0.00 | 0.00 | 0.00 | 33 | 1017.7 |
| 20260503201017 | 59 | 90 | 1.7 | 2.6 | 0.00 | 0.00 | 0.00 | 31 | 1017.5 |
| 20260503200513 | 58 | 326 | 1.7 | 1.7 | 0.00 | 0.00 | 0.00 | 34 | 1017.6 |
| 20260503200010 | 59 | 227 | 3.5 | 3.5 | 0.00 | 0.00 | 0.00 | 31 | 1017.9 |
| 20260503195507 | 58 | 13 | 0.0 | 1.7 | 0.00 | 0.00 | 0.00 | 40 | 1017.6 |
| 20260503195003 | 57 | 8 | 0.0 | 6.1 | 0.00 | 0.00 | 0.00 | 31 | 1017.9 |
| 20260503194501 | 57 | 206 | 1.7 | 2.6 | 0.00 | 0.00 | 0.00 | 35 | 1017.9 |
| 20260503194000 | 56 | 168 | 3.5 | 11.3 | 0.00 | 0.00 | 0.00 | 33 | 1018.1 |
| 20260503193457 | 56 | 106 | 1.7 | 6.1 | 0.00 | 0.00 | 0.00 | 33 | 1018.1 |
| 20260503192953 | 56 | 259 | 3.5 | 8.7 | 0.00 | 0.00 | 0.00 | 32 | 1018.5 |
| 20260503192449 | 56 | 210 | 3.5 | 7.8 | 0.00 | 0.00 | 0.00 | 33 | 1018.0 |
| 20260503191944 | 56 | 83 | 1.7 | 1.7 | 0.00 | 0.00 | 0.00 | 37 | 1018.2 |
| 20260503191443 | 58 | 205 | 2.6 | 6.1 | 0.00 | 0.00 | 0.00 | 30 | 1018.0 |
| 20260503190938 | 57 | 348 | 1.7 | 1.7 | 0.00 | 0.00 | 0.00 | 34 | 1018.3 |
| 20260503190436 | 57 | 219 | 0.0 | 1.7 | 0.00 | 0.00 | 0.00 | 29 | 1018.3 |
| 20260503185933 | 56 | 245 | 1.7 | 5.2 | 0.00 | 0.00 | 0.00 | 30 | 1018.8 |
| 20260503185429 | 55 | 20 | 0.0 | 1.7 | 0.00 | 0.00 | 0.00 | 34 | 1018.6 |
| 20260503184928 | 56 | 334 | 3.5 | 5.2 | 0.00 | 0.00 | 0.00 | 32 | 1018.8 |
| 20260503184425 | 57 | 0 | 2.6 | 3.5 | 0.00 | 0.00 | 0.00 | 30 | 1018.9 |
| 20260503183922 | 56 | 143 | 0.0 | 2.6 | 0.00 | 0.00 | 0.00 | 42 | 1018.9 |
| 20260503183418 | 56 | 242 | 3.5 | 3.5 | 0.00 | 0.00 | 0.00 | 37 | 1019.0 |
| 20260503182916 | 55 | 188 | 0.0 | 2.6 | 0.00 | 0.00 | 0.00 | 38 | 1019.0 |
| 20260503182415 | 53 | 207 | 5.2 | 6.1 | 0.00 | 0.00 | 0.00 | 38 | 1019.0 |
| 20260503181911 | 55 | 241 | 6.1 | 14.8 | 0.00 | 0.00 | 0.00 | 38 | 1019.1 |
| 20260503181408 | 55 | 248 | 4.3 | 7.0 | 0.00 | 0.00 | 0.00 | 38 | 1018.9 |
| 20260503180904 | 54 | 7 | 0.9 | 5.2 | 0.00 | 0.00 | 0.00 | 33 | 1019.0 |
| 20260503180403 | 54 | 277 | 3.5 | 5.2 | 0.00 | 0.00 | 0.00 | 38 | 1019.4 |
| 20260503175859 | 53 | 199 | 7.0 | 12.2 | 0.00 | 0.00 | 0.00 | 33 | 1019.1 |
| 20260503175357 | 53 | 269 | 2.6 | 7.8 | 0.00 | 0.00 | 0.00 | 34 | 1019.2 |
| 20260503174857 | 53 | 84 | 2.6 | 7.0 | 0.00 | 0.00 | 0.00 | 39 | 1019.1 |
| 20260503174356 | 54 | 194 | 5.2 | 7.0 | 0.00 | 0.00 | 0.00 | 35 | 1019.4 |
| 20260503173851 | 53 | 160 | 0.9 | 1.7 | 0.00 | 0.00 | 0.00 | 34 | 1019.2 |
| 20260503173347 | 53 | 307 | 4.3 | 12.2 | 0.00 | 0.00 | 0.00 | 32 | 1019.5 |
| 20260503172844 | 53 | 217 | 3.5 | 7.8 | 0.00 | 0.00 | 0.00 | 42 | 1019.4 |
| 20260503172342 | 53 | 306 | 2.6 | 2.6 | 0.00 | 0.00 | 0.00 | 33 | 1019.5 |
| 20260503171837 | 52 | 117 | 1.7 | 6.1 | 0.00 | 0.00 | 0.00 | 35 | 1019.6 |
| 20260503171335 | 52 | 199 | 2.6 | 7.0 | 0.00 | 0.00 | 0.00 | 34 | 1019.8 |
| 20260503170832 | 51 | 49 | 3.5 | 6.1 | 0.00 | 0.00 | 0.00 | 38 | 1019.6 |
| 20260503170328 | 51 | 73 | 3.5 | 5.2 | 0.00 | 0.00 | 0.00 | 41 | 1019.6 |
| 20260503150720 | 46 | 215 | 2.6 | 5.2 | 0.00 | 0.00 | 0.00 | 47 | 1020.8 |
| 20260503150217 | 47 | 190 | 7.0 | 9.6 | 0.00 | 0.00 | 0.00 | 46 | 1020.8 |
| 20260503140141 | 44 | 25 | 0.9 | 7.0 | 0.00 | 0.00 | 0.00 | 52 | 1020.7 |
| 20260503131110 | 41 | 226 | 2.6 | 5.2 | 0.00 | 0.00 | 0.00 | 55 | 1020.9 |
| 20260503130608 | 41 | 68 | 3.5 | 9.6 | 0.00 | 0.00 | 0.00 | 55 | 1020.6 |
| 20260503130106 | 42 | 71 | 1.7 | 7.8 | 0.00 | 0.00 | 0.00 | 54 | 1020.7 |
| 20260503110458 | 37 | 211 | 1.7 | 3.5 | 0.00 | 0.00 | 0.00 | 65 | 1019.1 |
| 20260503090344 | 38 | 57 | 0.9 | 3.5 | 0.00 | 0.00 | 0.00 | 66 | 1018.1 |
| 20260503081311 | 39 | 85 | 4.3 | 6.1 | 0.00 | 0.00 | 0.00 | 65 | 1017.6 |
| 20260503080807 | 39 | 209 | 2.6 | 6.1 | 0.00 | 0.00 | 0.00 | 63 | 1017.8 |
| 20260503080305 | 39 | 20 | 0.0 | 0.9 | 0.00 | 0.00 | 0.00 | 66 | 1017.6 |
| 20260503072741 | 39 | 243 | 1.7 | 7.8 | 0.00 | 0.00 | 0.00 | 65 | 1017.1 |
| 20260503072238 | 39 | 178 | 0.9 | 1.7 | 0.00 | 0.00 | 0.00 | 67 | 1017.2 |
| 20260503071734 | 39 | 37 | 2.6 | 5.2 | 0.00 | 0.00 | 0.00 | 65 | 1017.1 |
| 20260503071231 | 39 | 56 | 2.6 | 6.1 | 0.00 | 0.00 | 0.00 | 65 | 1017.1 |
| 20260503070727 | 39 | 344 | 1.7 | 2.6 | 0.00 | 0.00 | 0.00 | 65 | 1016.9 |
| 20260503070226 | 39 | 113 | 7.0 | 11.3 | 0.00 | 0.00 | 0.00 | 63 | 1016.9 |
| 20260503060145 | 40 | 53 | 2.6 | 3.5 | 0.00 | 0.00 | 0.00 | 61 | 1017.1 |
| 20260503054632 | 40 | 91 | 0.9 | 5.2 | 0.00 | 0.00 | 0.00 | 63 | 1017.1 |
| 20260503054129 | 41 | 80 | 3.5 | 6.1 | 0.00 | 0.00 | 0.00 | 59 | 1017.1 |
| 20260503053628 | 41 | 331 | 1.7 | 5.2 | 0.00 | 0.00 | 0.00 | 63 | 1017.2 |
| 20260503053126 | 41 | 19 | 1.7 | 2.6 | 0.00 | 0.00 | 0.00 | 65 | 1017.1 |
| 20260503052622 | 41 | 20 | 0.0 | 0.0 | 0.00 | 0.00 | 0.00 | 65 | 1017.2 |
| 20260503052118 | 41 | 54 | 0.0 | 0.0 | 0.00 | 0.00 | 0.00 | 65 | 1017.0 |
| 20260503051613 | 41 | 101 | 1.7 | 1.7 | 0.00 | 0.00 | 0.00 | 64 | 1016.9 |
| 20260503051111 | 41 | 228 | 0.9 | 6.1 | 0.00 | 0.00 | 0.00 | 63 | 1017.1 |
| 20260503050608 | 41 | 299 | 0.0 | 0.9 | 0.00 | 0.00 | 0.00 | 65 | 1017.1 |
| 20260503050105 | 41 | 35 | 2.6 | 5.2 | 0.00 | 0.00 | 0.00 | 65 | 1017.0 |
| 20260503045601 | 41 | 48 | 0.9 | 2.6 | 0.00 | 0.00 | 0.00 | 70 | 1017.1 |
| 20260503045059 | 41 | 343 | 2.6 | 3.5 | 0.00 | 0.00 | 0.00 | 68 | 1017.2 |
| 20260503044555 | 41 | 12 | 0.0 | 1.7 | 0.00 | 0.00 | 0.00 | 66 | 1017.1 |
| 20260503044053 | 41 | 190 | 2.6 | 2.6 | 0.00 | 0.00 | 0.00 | 71 | 1017.1 |
| 20260503043549 | 40 | 128 | 1.7 | 2.6 | 0.00 | 0.00 | 0.00 | 68 | 1017.1 |
| 20260503043045 | 41 | 237 | 0.0 | 0.9 | 0.00 | 0.00 | 0.00 | 75 | 1017.1 |
| 20260503042542 | 42 | 47 | 0.0 | 2.6 | 0.00 | 0.00 | 0.00 | 64 | 1017.1 |
| 20260503042039 | 41 | 48 | 1.7 | 2.6 | 0.00 | 0.00 | 0.00 | 68 | 1017.1 |
| 20260503041536 | 41 | 162 | 0.9 | 2.6 | 0.00 | 0.00 | 0.00 | 68 | 1017.1 |
| 20260503041034 | 41 | 5 | 1.7 | 2.6 | 0.00 | 0.00 | 0.00 | 68 | 1017.0 |
| 20260503040531 | 41 | 29 | 0.0 | 0.0 | 0.00 | 0.00 | 0.00 | 67 | 1017.3 |
| 20260503040028 | 41 | 57 | 2.6 | 3.5 | 0.00 | 0.00 | 0.00 | 67 | 1017.1 |
| 20260503035525 | 41 | 46 | 2.6 | 2.6 | 0.00 | 0.00 | 0.00 | 68 | 1017.1 |
| 20260503035022 | 41 | 54 | 1.7 | 2.6 | 0.00 | 0.00 | 0.00 | 70 | 1017.1 |
| 20260503034519 | 41 | 43 | 0.0 | 0.0 | 0.00 | 0.00 | 0.00 | 67 | 1017.3 |
| 20260503034016 | 41 | 116 | 2.6 | 2.6 | 0.00 | 0.00 | 0.00 | 66 | 1017.3 |
| 20260503033513 | 41 | 59 | 0.9 | 1.7 | 0.00 | 0.00 | 0.00 | 70 | 1017.2 |
| 20260503033011 | 41 | 52 | 0.9 | 1.7 | 0.00 | 0.00 | 0.00 | 70 | 1017.3 |
| 20260503032510 | 41 | 87 | 0.0 | 1.7 | 0.00 | 0.00 | 0.00 | 67 | 1017.3 |
| 20260503032008 | 41 | 73 | 1.7 | 2.6 | 0.00 | 0.00 | 0.00 | 68 | 1017.2 |
| 20260503031506 | 42 | 203 | 0.0 | 0.0 | 0.00 | 0.00 | 0.00 | 66 | 1017.2 |
| 20260503031002 | 42 | 195 | 0.9 | 1.7 | 0.00 | 0.00 | 0.00 | 67 | 1017.2 |
| 20260503030458 | 42 | 230 | 1.7 | 3.5 | 0.00 | 0.00 | 0.00 | 64 | 1017.3 |
| 20260503025955 | 43 | 257 | 0.0 | 2.6 | 0.00 | 0.00 | 0.00 | 64 | 1017.3 |